Location: Austin
(30.3000°N, 97.7500°W)
Time: 10:22:35
(UTC-05:00)

OPS 6432 - Pass Details

Date: 26 May 2023
Orbit: 383 x 1630 km, 63.3° (Epoch: 13 May)

Event Time Altitude Azimuth Distance (km) Brightness Sun altitude
Rises 21:15:48 0° 332° (NNW) 2,299 9.1 -10.5°
Reaches altitude 10° 21:17:41 10° 334° (NNW) 1,490 8.0 -10.8°
Maximum altitude 21:20:53 78° 61° (ENE) 482 4.4 -11.4°
Enters shadow 21:23:58 16° 147° (SSE) 1,470 6.4 -11.9°
